Home > Weather > Beirut > Past weeks

Flag for Lebanon Weather for the Past 2 Weeks in Beirut, Lebanon

Now
52 °F

Passing clouds.


Feels Like: 50 °F
Forecast: 57 / 64 °F
Wind: 6 mph from East

Location: Beirut Airport

Current Time: Feb 9, 2016 at 4:09:02 AM

Latest Report: Feb 9, 2016 at 3:00 AM


Visibility: 5 mi

Pressure: 30.30 "Hg

Humidity: 58%

Dew point: 37 °F

Location of BeirutLocation

Historic Weather in Beirut — Graph

°F

Beirut Temperature Yesterday

Maximum temperature yesterday: 61 °F (at 11:00 AM)
Minimum temperature yesterday: 52 °F (at 12:00 AM)
Average temperature yesterday: 56 °F

High & Low Weather Summary for the Past Weeks

 TemperatureHumidityPressure
High75 °F (Feb 5, 1:00 PM)88% (Feb 6, 6:00 AM)30.48 "Hg (Feb 6, 6:00 AM)
Low39 °F (Jan 28, 7:00 AM)19% (Jan 28, 1:00 PM)29.86 "Hg (Feb 7, 12:00 AM)
Average55 °F57%30.24 "Hg
* Reported Jan 25 3:00 AM — Feb 9 3:00 AM, Beirut, Weather by CustomWeather, © 2016

Note: Actual official high and low records may vary slightly from our data, if they occured in-between our weather recording intervals... More about our weather records

Advertising

Beirut Weather History for the Previous 24 Hours

 ConditionsComfort  
Time TempWeatherWind HumidityBarometerVisibility
3:00 AM
Tue, Feb 9
52 °FPassing clouds.6 mph58%30.30 "Hg5 mi
2:00 AM52 °FPassing clouds.6 mph58%30.30 "Hg5 mi
1:00 AM54 °FPassing clouds.6 mph54%30.30 "Hg5 mi
12:00 AM54 °FPassing clouds.6 mph58%30.30 "Hg5 mi
11:00 PM
Mon, Feb 8
54 °FPassing clouds.5 mph58%30.30 "Hg5 mi
10:00 PM54 °FPassing clouds.6 mph63%30.30 "Hg5 mi
9:00 PM55 °FPassing clouds.6 mph59%30.30 "Hg5 mi
8:00 PM55 °FPassing clouds.6 mph63%30.27 "HgN/A
7:00 PM57 °FPassing clouds.5 mph59%30.27 "HgN/A
6:00 PM59 °FPassing clouds.6 mph48%30.27 "HgN/A
5:00 PM59 °FScattered clouds.7 mph51%30.27 "HgN/A
4:00 PM59 °FScattered clouds.6 mph55%30.24 "HgN/A
3:00 PM61 °FScattered clouds.7 mph52%30.24 "HgN/A
2:00 PM59 °FScattered clouds.6 mph55%30.24 "HgN/A
1:00 PM59 °FScattered clouds.6 mph55%30.24 "Hg5 mi
12:00 PM59 °FScattered clouds.6 mph55%30.24 "Hg5 mi
11:00 AM61 °FPartly sunny.2 mph48%30.24 "Hg5 mi
10:00 AM57 °FPartly sunny.2 mph55%30.24 "Hg5 mi
9:00 AM55 °FPartly sunny.2 mph63%30.21 "Hg5 mi
8:00 AM54 °FPartly sunny.3 mph67%30.21 "Hg5 mi
7:00 AM52 °FScattered clouds.5 mph72%30.18 "HgN/A
6:00 AM52 °FPassing clouds.3 mph77%30.18 "Hg5 mi
5:00 AM52 °FPassing clouds.5 mph72%30.18 "Hg5 mi
4:00 AM52 °FPassing clouds.3 mph72%30.15 "HgN/A
Weather by CustomWeather, © 2016

See weather overviewHow to use our weather pages